sat.trackr.live / text

‹ back to catalog

TYVAK-182A

NORAD 48271 · 2021-034D

PAYLOAD ACTIVE UNKNOWN

§ Identity

Operator
Country
IT
Launch date
2021-04-29
Launch site
FRGUI
Launch vehicle
Mass (kg)
RCS (m²)

External: N2YO · Heavens-Above · Gunter

§ Orbital elements

Epoch: 2026-09-13T03:18:10.883808Z

Period
95.56 min
Inclination
97.5633°
Eccentricity
0.0006660
Mean motion
15.06831050 rev/d
Perigee alt
541.3 km
Apogee alt
550.5 km
Semi-major
6,924.0 km
B*
1.8044e-4
RAAN
313.5278°
Arg perigee
43.6355°
Mean anomaly
316.5398°
Rev number
29,307

§ Raw data

TYVAK-182A1 48271U 21034D   26256.13762597  .00002629  00000+0  18044-3 0  99912 48271  97.5633 313.5278 0006660  43.6355 316.5398 15.06831050293075

JSON: /api/v1/satellites/48271 · /tle

For live sub-satellite position, see the globe view (requires WebGL).

§ Visibility from observer

Set your observer location to see the next 7 days of passes ≥ 10°. The values pass through the URL so the page stays shareable.

No JS? Fill the form by hand. The geolocation button needs JavaScript.

§ Radio — SatNOGS DB

ModeDescriptionDownlinkUplink
FM Downlink 401.760 MHz

1 transmitter · refreshed weekly from db.satnogs.org